Hoquiam, WA
on Saturday, February 2, 2013

Saturday
Previous Day Next Day
Daily Summary
 ActualAverageRecord
Temperature
Mean Temperature °F 43°F  
Max Temperature 54°F 49°F 59°F (1993)
Min Temperature 41°F 38°F 16°F (1989)
Degree Days
Heating Degree Days 18 22  
Month to date heating degree days 44  
Cooling Degree Days 0 0  
Month to date cooling degree days 0  
Year to date cooling degree days 0  
Moisture
Dew Point 41°F   
Average Humidity 86    
Maximum Humidity 96    
Minimum Humidity 69    
Precipitation
Precipitation 0.00 in 0.28 in 1.50 in (1963)
Month to date precipitation 0.56  
Year to date precipitation 10.89  
Wind
Wind Speed 9 mph   
Max Wind Speed 15 mph   
Max Gust Speed mph   
Visibility 10 miles   
Events     

Key: T is trace of precipitation, MM is missing value
Source: NWS Daily Summary
Time(PST)TemperatureDew PointHumidity Pressure Visibility Wind DirectionWind SpeedGust SpeedPrecipitationEvents Conditions
12:53 AM 44.6°F 39.2°F 81% 30.32 in 10.0 miles NE 8.1 mph - N/A   Clear
1:53 AM 43.0°F 39.0°F 86% 30.33 in 10.0 miles NE 11.5 mph - N/A   Clear
2:53 AM 42.1°F 39.0°F 89% 30.33 in 10.0 miles NE 15.0 mph - N/A   Clear
4:53 AM 42.1°F 39.0°F 89% 30.30 in 10.0 miles ENE 11.5 mph - N/A   Clear
5:53 AM 42.1°F 39.0°F 89% 30.29 in 10.0 miles ENE 8.1 mph - N/A   Partly Cloudy
6:53 AM 41.0°F 39.0°F 93% 30.28 in 10.0 miles ENE 12.7 mph - N/A   Clear
7:17 AM 41.0°F 39.2°F 93% 30.27 in 10.0 miles ENE 12.7 mph - N/A   Partly Cloudy
7:36 AM 41.0°F 39.2°F 93% 30.27 in 10.0 miles ENE 9.2 mph - N/A   Mostly Cloudy
7:53 AM 42.1°F 39.0°F 89% 30.28 in 10.0 miles ENE 13.8 mph - N/A   Mostly Cloudy
8:53 AM 42.1°F 39.9°F 92% 30.29 in 10.0 miles ENE 12.7 mph - N/A   Scattered Clouds
9:53 AM 45.0°F 41.0°F 86% 30.29 in 10.0 miles ENE 11.5 mph - N/A   Clear
10:53 AM 46.9°F 42.1°F 83% 30.30 in 10.0 miles ENE 10.4 mph - N/A   Clear
11:53 AM 48.9°F 43.0°F 80% 30.28 in 10.0 miles East 12.7 mph - N/A   Clear
12:53 PM 50.0°F 43.0°F 77% 30.27 in 10.0 miles East 10.4 mph - N/A   Clear
1:53 PM 52.0°F 44.1°F 74% 30.26 in 10.0 miles East 9.2 mph - N/A   Clear
2:53 PM 54.0°F 44.1°F 69% 30.25 in 10.0 miles East 9.2 mph - N/A   Clear
3:53 PM 54.0°F 44.1°F 69% 30.25 in 10.0 miles East 6.9 mph - N/A   Clear
4:53 PM 51.1°F 44.1°F 77% 30.24 in 10.0 miles East 6.9 mph - N/A   Clear
5:53 PM 50.0°F 43.0°F 77% 30.25 in 10.0 miles NE 3.5 mph - N/A   Clear
6:53 PM 46.0°F 42.1°F 86% 30.26 in 10.0 miles Calm Calm - N/A   Clear
7:53 PM 43.0°F 41.0°F 93% 30.27 in 10.0 miles Calm Calm - N/A   Clear
8:53 PM 42.1°F 39.9°F 92% 30.27 in 6.0 miles East 5.8 mph - N/A   Clear
9:42 PM 42.8°F 41.0°F 93% 30.28 in 7.0 miles NE 5.8 mph - N/A   Mostly Cloudy
9:53 PM 43.0°F 41.0°F 93% 30.29 in 10.0 miles NE 4.6 mph - N/A   Overcast
10:45 PM 44.6°F 42.8°F 93% 30.27 in 9.0 miles ESE 3.5 mph - N/A   Overcast
10:53 PM 46.0°F 43.0°F 89% 30.28 in 10.0 miles ESE 5.8 mph - N/A   Overcast
11:53 PM 46.0°F 45.0°F 96% 30.30 in 8.0 miles Calm Calm - N/A   Overcast
Moon Phase
Feb. 02 Feb. 03 Feb. 10 Feb. 17 Feb. 25
Sunrise:07:38 AM (PST) Moon Rise:12:01 AM (PST)2/2
Sunset:05:20 PM (PST) Moon Set:10:22 AM (PST)2/2

Copyright © 2014 The Weather Underground, Inc.